Location: 22
(39.7117°N, 89.5929°W)
Time: 10:09:00
(UTC-05:00)

Transit 2A - Pass Details

Date: 10 August 2024
Orbit: 590 x 961 km, 66.7° (Epoch: 13 September)

Event Time Altitude Azimuth Distance (km) Brightness Sun altitude
Rises 03:36:32 0° 194° (SSW) 3,173 - -24.4°
Reaches altitude 10° 03:38:50 10° 190° (S) 2,310 - -24.1°
Exits shadow 03:42:25 41° 165° (SSE) 1,174 6.7 -23.7°
Maximum altitude 03:44:03 55° 113° (ESE) 991 6.6 -23.5°
Drops below altitude 10° 03:49:49 10° 37° (NE) 2,564 9.8 -22.7°
Sets 03:52:29 0° 33° (NNE) 3,553 10.9 -22.4°
